Time,TemperatureF,DewpointF,PressureIn,WindDirection,WindDirectionDegrees,WindSpeedMPH,WindSpeedGustMPH,Humidity,HourlyPrecipIn,Conditions,Clouds,dailyrainin,SoftwareType,DateUTC
2013-03-05 08:32:00,35.0,33.0,29.85,NW,312,12.0,13.0,94,0.00,,,-99.99,,2013-03-05 13:32:00,
2013-03-05 08:42:00,35.0,33.0,29.85,NW,312,12.0,13.0,94,0.00,,,-99.99,,2013-03-05 13:42:00,
2013-03-05 08:52:00,35.0,33.0,29.85,NW,312,8.0,14.0,94,0.00,,,-99.99,,2013-03-05 13:52:00,
2013-03-05 09:02:00,36.0,34.0,29.85,NW,313,7.0,14.0,93,0.00,,,-99.99,,2013-03-05 14:02:00,
2013-03-05 09:11:00,36.0,34.0,29.85,NW,313,7.0,14.0,93,0.00,,,-99.99,,2013-03-05 14:11:00,
2013-03-05 09:22:00,36.0,34.0,29.85,North,4,6.0,17.0,93,0.00,,,-99.99,,2013-03-05 14:22:00,
2013-03-05 09:32:00,37.0,35.0,29.86,NNW,347,3.0,11.0,91,0.00,,,-99.99,,2013-03-05 14:32:00,
2013-03-05 09:42:00,37.0,35.0,29.86,NNW,347,3.0,11.0,91,0.00,,,-99.99,,2013-03-05 14:42:00,
2013-03-05 09:52:00,37.0,34.0,29.86,NW,326,8.0,18.0,90,0.00,,,-99.99,,2013-03-05 14:52:00,
2013-03-05 10:02:00,38.0,35.0,29.87,North,1,12.0,13.0,89,0.00,,,-99.99,,2013-03-05 15:02:00,
2013-03-05 10:11:00,38.0,35.0,29.87,North,1,12.0,13.0,89,0.00,,,-99.99,,2013-03-05 15:11:00,
2013-03-05 10:21:00,38.0,34.0,29.88,NW,326,5.0,17.0,87,0.00,,,-99.99,,2013-03-05 15:21:00,
2013-03-05 10:32:00,38.0,34.0,29.88,NNE,27,4.0,13.0,87,0.00,,,-99.99,,2013-03-05 15:32:00,
2013-03-05 10:42:00,38.0,34.0,29.88,NNE,27,4.0,13.0,87,0.00,,,-99.99,,2013-03-05 15:42:00,
2013-03-05 10:52:00,38.0,35.0,29.88,North,353,2.0,12.0,88,0.00,,,-99.99,,2013-03-05 15:52:00,
2013-03-05 11:01:00,39.0,35.0,29.88,NNW,329,2.0,12.0,86,0.00,,,-99.99,,2013-03-05 16:01:00,
2013-03-05 11:11:00,39.0,35.0,29.88,NNW,329,2.0,12.0,86,0.00,,,-99.99,,2013-03-05 16:11:00,
2013-03-05 11:22:00,39.0,35.0,29.88,NW,310,0.0,13.0,87,0.00,,,-99.99,,2013-03-05 16:22:00,
2013-03-05 11:32:00,40.0,36.0,29.89,NW,316,6.0,10.0,84,0.00,,,-99.99,,2013-03-05 16:32:00,
2013-03-05 11:42:00,40.0,36.0,29.89,NW,316,6.0,10.0,84,0.00,,,-99.99,,2013-03-05 16:42:00,
2013-03-05 11:52:00,40.0,36.0,29.90,NNW,331,4.0,15.0,84,0.00,,,-99.99,,2013-03-05 16:52:00,
2013-03-05 12:01:00,40.0,35.0,29.90,East,86,1.0,12.0,83,0.00,,,-99.99,,2013-03-05 17:01:00,
2013-03-05 12:11:00,40.0,35.0,29.90,East,86,1.0,12.0,83,0.00,,,-99.99,,2013-03-05 17:11:00,
2013-03-05 12:21:00,40.0,35.0,29.89,NNW,338,3.0,16.0,81,0.00,,,-99.99,,2013-03-05 17:21:00,
2013-03-05 12:32:00,42.0,36.0,29.89,NW,320,1.0,11.0,80,0.00,,,-99.99,,2013-03-05 17:32:00,
2013-03-05 12:42:00,42.0,36.0,29.89,NW,320,1.0,11.0,80,0.00,,,-99.99,,2013-03-05 17:42:00,
2013-03-05 12:53:00,41.0,35.0,29.89,NNE,30,6.0,13.0,80,0.00,,,-99.99,,2013-03-05 17:53:00,
2013-03-05 13:02:00,41.0,36.0,29.90,WSW,241,4.0,12.0,81,0.00,,,-99.99,,2013-03-05 18:02:00,
2013-03-05 13:11:00,41.0,36.0,29.90,WSW,241,4.0,12.0,81,0.00,,,-99.99,,2013-03-05 18:11:00,
2013-03-05 13:22:00,41.0,35.0,29.90,North,353,4.0,11.0,80,0.00,,,-99.99,,2013-03-05 18:22:00,
2013-03-05 13:32:00,41.0,35.0,29.90,North,353,4.0,11.0,80,0.00,,,-99.99,,2013-03-05 18:32:00,
2013-03-05 13:42:00,41.0,35.0,29.90,North,353,4.0,11.0,80,0.00,,,-99.99,,2013-03-05 18:42:00,
2013-03-05 13:53:00,41.0,37.0,29.91,WNW,301,7.0,14.0,86,0.00,,,-99.99,,2013-03-05 18:53:00,
2013-03-05 14:01:00,41.0,36.0,29.92,NNW,332,12.0,12.0,81,0.00,,,-99.99,,2013-03-05 19:01:00,
2013-03-05 14:11:00,41.0,36.0,29.92,NNW,332,12.0,12.0,81,0.00,,,-99.99,,2013-03-05 19:11:00,
2013-03-05 14:21:00,41.0,35.0,29.92,ENE,66,5.0,14.0,80,0.00,,,-99.99,,2013-03-05 19:21:00,
2013-03-05 14:32:00,41.0,36.0,29.92,ESE,106,2.0,16.0,81,0.00,,,-99.99,,2013-03-05 19:32:00,
2013-03-05 14:42:00,41.0,36.0,29.92,ESE,106,2.0,16.0,81,0.00,,,-99.99,,2013-03-05 19:42:00,
2013-03-05 14:52:00,41.0,36.0,29.93,NW,306,9.0,17.0,82,0.00,,,-99.99,,2013-03-05 19:52:00,
2013-03-05 15:01:00,40.0,35.0,29.93,WNW,293,4.0,15.0,83,0.00,,,-99.99,,2013-03-05 20:01:00,
2013-03-05 15:11:00,40.0,36.0,29.93,NNW,340,3.0,12.0,86,0.00,,,-99.99,,2013-03-05 20:11:00,
2013-03-05 15:22:00,40.0,36.0,29.93,NNW,340,3.0,12.0,86,0.00,,,-99.99,,2013-03-05 20:22:00,
2013-03-05 15:32:00,40.0,36.0,29.93,NNW,329,0.0,18.0,85,0.00,,,-99.99,,2013-03-05 20:32:00,
2013-03-05 15:42:00,40.0,36.0,29.93,NNW,329,0.0,18.0,85,0.00,,,-99.99,,2013-03-05 20:42:00,
2013-03-05 15:52:00,40.0,36.0,29.94,NNW,332,6.0,12.0,85,0.00,,,-99.99,,2013-03-05 20:52:00,
2013-03-05 16:02:00,40.0,36.0,29.95,NW,320,3.0,10.0,85,0.00,,,-99.99,,2013-03-05 21:02:00,
2013-03-05 16:11:00,40.0,36.0,29.95,NW,320,3.0,10.0,85,0.00,,,-99.99,,2013-03-05 21:11:00,
2013-03-05 16:22:00,39.0,36.0,29.95,North,356,6.0,10.0,88,0.00,,,-99.99,,2013-03-05 21:22:00,
2013-03-05 16:32:00,39.0,36.0,29.96,NW,307,2.0,8.0,90,0.00,,,-99.99,,2013-03-05 21:32:00,
2013-03-05 16:42:00,39.0,36.0,29.96,NW,307,2.0,8.0,90,0.00,,,-99.99,,2013-03-05 21:42:00,
2013-03-05 16:52:00,38.0,36.0,29.96,NW,319,5.0,10.0,91,0.00,,,-99.99,,2013-03-05 21:52:00,
2013-03-05 17:01:00,38.0,36.0,29.97,NW,322,2.0,14.0,91,0.00,,,-99.99,,2013-03-05 22:01:00,
2013-03-05 17:12:00,38.0,36.0,29.97,NW,322,2.0,14.0,91,0.00,,,-99.99,,2013-03-05 22:12:00,
2013-03-05 17:22:00,38.0,36.0,29.97,NNE,14,5.0,10.0,91,0.00,,,-99.99,,2013-03-05 22:22:00,
2013-03-05 17:32:00,37.0,35.0,29.98,NW,304,9.0,14.0,92,0.00,,,-99.99,,2013-03-05 22:32:00,
2013-03-05 17:42:00,37.0,35.0,29.98,NW,304,9.0,14.0,92,0.00,,,-99.99,,2013-03-05 22:42:00,
2013-03-05 17:52:00,37.0,35.0,29.98,NNE,30,0.0,14.0,92,0.00,,,-99.99,,2013-03-05 22:52:00,
2013-03-05 18:01:00,37.0,35.0,29.99,NNW,328,2.0,11.0,92,0.00,,,-99.99,,2013-03-05 23:01:00,
2013-03-05 18:11:00,37.0,35.0,29.99,NNW,328,2.0,11.0,92,0.00,,,-99.99,,2013-03-05 23:11:00,
2013-03-05 18:22:00,37.0,35.0,30.00,NW,314,5.0,10.0,91,0.00,,,-99.99,,2013-03-05 23:22:00,
2013-03-05 18:32:00,36.0,34.0,30.01,NNW,333,6.0,10.0,92,0.00,,,-99.99,,2013-03-05 23:32:00,
2013-03-05 18:42:00,36.0,34.0,30.01,NNW,333,6.0,10.0,92,0.00,,,-99.99,,2013-03-05 23:42:00,
2013-03-05 18:53:00,36.0,34.0,30.01,NW,322,2.0,11.0,91,0.00,,,-99.99,,2013-03-05 23:53:00,
2013-03-05 19:01:00,36.0,34.0,30.01,NW,323,3.0,9.0,92,0.00,,,-99.99,,2013-03-06 00:01:00,
2013-03-05 19:11:00,36.0,34.0,30.01,NW,323,3.0,9.0,92,0.00,,,-99.99,,2013-03-06 00:11:00,
2013-03-05 19:21:00,35.0,33.0,30.02,NNW,327,4.0,10.0,92,0.00,,,-99.99,,2013-03-06 00:21:00,
2013-03-05 19:32:00,35.0,33.0,30.03,North,359,1.0,10.0,93,0.00,,,-99.99,,2013-03-06 00:32:00,
2013-03-05 19:42:00,35.0,33.0,30.03,North,359,1.0,10.0,93,0.00,,,-99.99,,2013-03-06 00:42:00,
2013-03-05 19:52:00,35.0,33.0,30.03,WNW,298,2.0,12.0,93,0.00,,,-99.99,,2013-03-06 00:52:00,
2013-03-05 20:02:00,35.0,33.0,30.04,NW,326,0.0,7.0,93,0.00,,,-99.99,,2013-03-06 01:02:00,
2013-03-05 20:11:00,35.0,33.0,30.04,NW,326,0.0,7.0,93,0.00,,,-99.99,,2013-03-06 01:11:00,
2013-03-05 20:21:00,35.0,33.0,30.04,NNW,335,0.0,13.0,93,0.00,,,-99.99,,2013-03-06 01:21:00,
2013-03-05 20:32:00,35.0,33.0,30.05,NW,326,0.0,10.0,93,0.00,,,-99.99,,2013-03-06 01:32:00,
2013-03-05 20:42:00,35.0,33.0,30.05,NW,326,0.0,10.0,93,0.00,,,-99.99,,2013-03-06 01:42:00,
2013-03-05 20:52:00,34.0,32.0,30.05,NW,324,3.0,10.0,94,0.00,,,-99.99,,2013-03-06 01:52:00,
2013-03-05 21:01:00,34.0,32.0,30.06,NNE,20,8.0,9.0,93,0.00,,,-99.99,,2013-03-06 02:01:00,
2013-03-05 21:11:00,34.0,32.0,30.06,NNE,20,8.0,9.0,93,0.00,,,-99.99,,2013-03-06 02:11:00,
2013-03-05 21:22:00,34.0,32.0,30.06,ENE,77,2.0,8.0,94,0.00,,,-99.99,,2013-03-06 02:22:00,
2013-03-05 21:32:00,34.0,32.0,30.07,North,358,0.0,9.0,94,0.00,,,-99.99,,2013-03-06 02:32:00,
2013-03-05 21:42:00,34.0,32.0,30.07,North,358,0.0,9.0,94,0.00,,,-99.99,,2013-03-06 02:42:00,
2013-03-05 21:52:00,34.0,33.0,30.07,NNE,32,4.0,12.0,95,0.00,,,-99.99,,2013-03-06 02:52:00,
2013-03-05 22:02:00,34.0,33.0,30.08,NE,38,2.0,11.0,95,0.00,,,-99.99,,2013-03-06 03:02:00,
2013-03-05 22:11:00,34.0,33.0,30.08,NE,38,2.0,11.0,95,0.00,,,-99.99,,2013-03-06 03:11:00,
2013-03-05 22:22:00,34.0,33.0,30.08,ENE,57,2.0,10.0,95,0.00,,,-99.99,,2013-03-06 03:22:00,
2013-03-05 22:32:00,34.0,33.0,30.08,NNW,345,3.0,11.0,96,0.00,,,-99.99,,2013-03-06 03:32:00,
2013-03-05 22:42:00,34.0,33.0,30.08,NNW,345,3.0,11.0,96,0.00,,,-99.99,,2013-03-06 03:42:00,
2013-03-05 22:53:00,34.0,33.0,30.09,North,360,0.0,8.0,96,0.00,,,-99.99,,2013-03-06 03:53:00,
2013-03-05 23:02:00,34.0,33.0,30.10,ENE,71,4.0,7.0,96,0.00,,,-99.99,,2013-03-06 04:02:00,
2013-03-05 23:11:00,34.0,33.0,30.10,ENE,71,4.0,7.0,96,0.00,,,-99.99,,2013-03-06 04:11:00,
2013-03-05 23:22:00,34.0,33.0,30.10,NE,51,1.0,11.0,96,0.00,,,-99.99,,2013-03-06 04:22:00,
2013-03-05 23:32:00,34.0,33.0,30.11,East,86,2.0,11.0,96,0.00,,,-99.99,,2013-03-06 04:32:00,
2013-03-05 23:42:00,34.0,33.0,30.11,East,86,2.0,11.0,96,0.00,,,-99.99,,2013-03-06 04:42:00,
2013-03-05 23:52:00,34.0,33.0,30.11,NNE,17,2.0,9.0,96,0.00,,,-99.99,,2013-03-06 04:52:00,